NOAA NWS Hourly Roundups by Site

Regional Weather Roundup for State College, PA

To Select Another Site Choose from List

Select Site:  

000
ASUS41 KCTP 231703
RWRCTP

REGIONAL WEATHER ROUNDUP
NATIONAL WEATHER SERVICE STATE COLLEGE PA
100 PM EDT MON JUL 23 2018

Note: "fair" indicates few or no clouds below 12,000 feet with no
significant weather and/or obstructions to visibility.

* = STATION THAT DOES NOT REPORT PRECIPITATION /E.G. RAIN...SNOW...ETC/
    THUNDER OR FOG.

PAZ002>004-007>009-013>016-020>023-029>032-231800-
WESTERN PENNSYLVANIA

CITY           SKY/WX    TMP DP  RH WIND       PRES   REMARKS
ERIE           PTSUNNY   83  68  60 SE10      29.91S
MEADVILLE      CLOUDY    76  69  79 SE6       29.95S
FRANKLIN*      CLOUDY    75  68  78 SE9       29.97S
NEW CASTLE     PTSUNNY   79  70  74 SE7       29.94S
BEAVER COUNTY  PTSUNNY   79  66  65 SE10G16   29.94R
BUTLER*        FAIR      76  69  79 E10       29.95S
PITTSBURGH INT CLOUDY    78  69  73 SE9       29.92F
PITTSBURGH     PTSUNNY   76  70  82 E7        29.93S
INDIANA*       MOSUNNY   75  70  83 SE10      30.00F
LATROBE        PTSUNNY   77  68  73 SE7       29.94F
WASHINGTON CO* FAIR      79  69  71 SE7       29.94
$$

PAZ004>006-010>012-017>019-024>028-033>037-041-042-045-046-049>053-231800-
CENTRAL PENNSYLVANIA

CITY           SKY/WX    TMP DP  RH WIND       PRES   REMARKS
BRADFORD       FAIR      76  64  66 SE10      30.02S
DUBOIS         CLOUDY    72  66  81 SE13G20   30.00S
CLEARFIELD     CLOUDY    71  68  90 NE6       30.02R
JOHNSTOWN      PTSUNNY   72  67  84 SE8G18    30.01F
ALTOONA        RAIN      73  69  87 SE5       30.02R FOG
STATE COLLEGE  CLOUDY    75  70  83 SE8       30.01F
WILLIAMSPORT   PTSUNNY   81  72  74 VRB5      29.98F
SELINSGROVE    PTSUNNY   80  71  74 SE8       30.00S
FT INDIANTOWN  LGT RAIN  78  77  96 CALM      30.00S
CAPITAL CITY   LGT RAIN  82  72  71 S13       29.99S
HARRISBURG     LGT RAIN  76  73  91 SE14      29.99S FOG
YORK           FAIR      80  72  76 S10G20    29.99F
$$

PAZ038>040-043-044-047-048-054-055-060>062-067>071-231800-
EASTERN PENNSYLVANIA

CITY           SKY/WX    TMP DP  RH WIND       PRES   REMARKS
SCRANTON       PTSUNNY   79  73  82 SE8       30.06F
MOUNT POCONO   LGT RAIN  71  71 100 SE15G23   30.13F
ALLENTOWN      PTSUNNY   84  73  69 SE16      30.05F
QUAKERTOWN*    NOT AVBL
READING        PTSUNNY   84  75  74 SE14G24   29.99F
LANCASTER      LGT RAIN  78  76  93 S12       30.02R FOG
COATESVILLE    PTSUNNY   79  73  83 SE9G16    30.05S
POTTSTOWN      PTSUNNY   82  75  79 VRB5      30.06F
BLUE BELL      FAIR      81  77  89 SE10      30.06F
DOYLESTOWN     FAIR      79  76  90 SE8       30.06F
WILLOW GROVE   NOT AVBL
NORTH PHILA    FAIR      86  74  67 SE14G21   30.07S
PHILADELPHIA   PTSUNNY   84  74  71 SE21G31   30.04F
$$


 

View Past Reports for State College, PA.

Products Courtesy of NOAA-NWS
NWS Information Parsing Script by Ken True at Saratoga Weather - Script by SE Lincoln Weather.